KC5AYO Weather Reports


Display with metric or nautical units.
time (UTC)temp
F
wind
direction
speed
MPH
gust
MPH
rain 1hr
in
rain 24hr
in
rain mn
in
humidity
%
barometer
mb
20260509112042 55 164 0.0 2.0 0.00 0.43 0.28 96 1006.8
20260509111541 55 223 0.0 2.0 0.00 0.43 0.28 96 1006.8
20260509111041 55 178 0.0 2.0 0.00 0.43 0.28 96 1006.7
20260509110543 55 208 0.0 2.0 0.00 0.43 0.28 96 1006.7
20260509110039 55 153 0.0 2.0 0.00 0.43 0.28 96 1006.7
20260509105539 55 209 0.0 2.0 0.00 0.43 0.28 96 1006.7
20260509105039 55 171 0.0 0.0 0.00 0.43 0.28 96 1006.7
20260509104539 55 164 0.0 0.0 0.00 0.43 0.28 96 1006.7
20260509104038 55 164 0.0 0.0 0.00 0.43 0.28 96 1006.7
20260509103538 54 164 0.0 0.0 0.00 0.43 0.28 96 1006.6
20260509103038 54 164 0.0 0.0 0.00 0.43 0.28 96 1006.6
20260509102538 54 164 0.0 0.0 0.00 0.43 0.28 96 1006.5
20260509102039 54 164 0.0 0.0 0.00 0.43 0.28 96 1006.5
20260509101548 54 164 0.0 0.0 0.01 0.43 0.28 95 1006.5
20260509101037 54 162 0.0 2.0 0.01 0.43 0.28 95 1006.5
20260509100538 54 161 0.0 2.0 0.01 0.43 0.28 95 1006.5
20260509100037 54 128 0.0 2.0 0.01 0.43 0.28 96 1006.5
20260509095537 54 178 0.0 0.0 0.01 0.43 0.28 95 1006.5
20260509095038 55 161 0.0 2.0 0.01 0.43 0.28 95 1006.5
20260509094536 54 162 0.0 2.0 0.02 0.43 0.28 95 1006.6
20260509094035 55 195 0.0 2.0 0.02 0.43 0.28 95 1006.8
20260509093534 55 186 0.0 2.0 0.02 0.43 0.28 95 1006.8
20260509093035 55 98 0.0 2.0 0.03 0.43 0.28 95 1007.1
20260509092533 55 184 0.0 1.0 0.03 0.43 0.28 95 1007.2
20260509092033 55 132 0.0 1.0 0.03 0.43 0.28 95 1007.2
20260509091533 55 173 0.0 0.0 0.03 0.42 0.27 95 1007.3
20260509091036 55 167 0.0 0.0 0.04 0.42 0.27 95 1007.5
20260509090532 55 167 0.0 0.0 0.04 0.42 0.27 95 1007.5
20260509090032 55 167 0.0 1.0 0.05 0.42 0.27 95 1007.5
20260509085531 55 167 0.0 1.0 0.05 0.42 0.27 95 1007.5
20260509085031 55 169 0.0 1.0 0.05 0.42 0.27 95 1007.8
20260509084531 55 157 0.0 2.0 0.04 0.41 0.26 95 1007.6
20260509084030 55 173 0.0 2.0 0.05 0.41 0.26 95 1007.6
20260509083532 55 176 0.0 0.0 0.07 0.41 0.26 95 1007.4
20260509083036 55 176 0.0 0.0 0.09 0.40 0.25 95 1007.4
20260509082534 55 198 0.0 0.0 0.10 0.40 0.25 95 1007.5
20260509082028 55 198 0.0 1.0 0.11 0.40 0.25 95 1007.6
20260509081532 55 198 0.0 1.0 0.11 0.39 0.24 95 1007.7
20260509081028 55 214 0.0 0.0 0.10 0.38 0.23 95 1007.8
20260509080527 55 209 0.0 0.0 0.11 0.38 0.23 95 1007.7
20260509080027 55 211 0.0 0.0 0.11 0.37 0.22 95 1007.7
20260509075527 55 211 0.0 0.0 0.12 0.37 0.22 95 1007.7
20260509075029 55 211 0.0 0.0 0.13 0.37 0.22 95 1007.7
20260509074526 55 211 0.0 0.0 0.13 0.36 0.21 95 1007.8
20260509074025 55 211 0.0 0.0 0.14 0.36 0.21 95 1007.9
20260509073524 55 211 0.0 0.0 0.12 0.33 0.18 95 1008.2
20260509073023 55 211 0.0 0.0 0.10 0.31 0.16 95 1008.2
20260509072524 55 211 0.0 1.0 0.10 0.30 0.15 95 1008.2
20260509072026 55 209 0.0 1.0 0.09 0.28 0.14 95 1008.2
20260509071522 55 217 0.0 0.0 0.08 0.28 0.13 95 1008.2
20260509071025 55 259 0.0 0.0 0.08 0.28 0.13 95 1008.2
20260509070526 55 259 0.0 0.0 0.07 0.27 0.12 95 1008.2
20260509070022 55 259 0.0 0.0 0.07 0.26 0.11 95 1008.2
20260509065521 55 259 0.0 1.0 0.06 0.25 0.10 95 1008.3
20260509065020 55 259 0.0 2.0 0.05 0.24 0.09 95 1008.4
20260509064520 55 313 0.0 2.0 0.04 0.23 0.08 95 1008.5
20260509064021 55 229 0.0 2.0 0.03 0.22 0.07 95 1008.6
20260509063521 55 322 0.0 0.0 0.02 0.21 0.06 95 1008.6
20260509063019 55 322 0.0 0.0 0.02 0.21 0.06 95 1008.5
20260509062519 55 322 0.0 0.0 0.01 0.20 0.05 95 1008.3
20260509062019 55 322 0.0 0.0 0.02 0.20 0.05 95 1008.2
20260509061520 55 322 0.0 0.0 0.02 0.20 0.05 95 1008.3
20260509061018 55 322 0.0 0.0 0.02 0.20 0.05 95 1008.2
20260509060518 55 322 0.0 0.0 0.02 0.20 0.05 95 1008.3
20260509060020 55 322 0.0 0.0 0.02 0.19 0.04 95 1008.4
20260509055516 55 322 0.0 0.0 0.02 0.19 0.04 95 1008.6
20260509055016 55 319 0.0 0.0 0.02 0.19 0.04 95 1008.6
20260509054516 55 319 0.0 0.0 0.02 0.19 0.04 95 1008.8
20260509054015 55 319 0.0 0.0 0.02 0.19 0.04 95 1008.9
20260509053515 55 355 0.0 0.0 0.03 0.19 0.04 95 1009.0
20260509053016 55 355 0.0 0.0 0.03 0.19 0.04 95 1008.9
20260509052516 55 355 0.0 0.0 0.03 0.19 0.04 95 1009.0
20260509052016 55 355 0.0 0.0 0.02 0.18 0.03 95 1009.0
20260509051518 55 338 0.0 0.0 0.02 0.18 0.03 95 1009.0
20260509051014 55 338 0.0 0.0 0.03 0.18 0.03 95 1009.1
20260509050518 55 338 0.0 0.0 0.03 0.18 0.03 94 1009.0
20260509050014 55 336 0.0 0.0 0.02 0.17 0.02 94 1009.2
20260509045513 55 338 0.0 0.0 0.02 0.17 0.02 94 1008.9
20260509045014 55 338 0.0 0.0 0.03 0.17 0.02 94 1008.9
20260509044512 55 338 0.0 0.0 0.03 0.17 0.02 94 1008.8
20260509044011 55 338 0.0 0.0 0.04 0.17 0.02 94 1008.7
20260509043517 55 337 0.0 0.0 0.03 0.16 0.01 94 1008.9
20260509043011 56 344 0.0 2.0 0.03 0.16 0.01 94 1008.9
20260509042511 56 11 0.0 0.0 0.03 0.16 0.01 94 1008.7
20260509042010 55 11 0.0 0.0 0.03 0.16 0.01 94 1008.7
20260509041510 56 11 0.0 0.0 0.03 0.16 0.01 94 1008.9
20260509041009 56 11 0.0 2.0 0.02 0.15 0.00 94 1008.7
20260509040509 56 11 0.0 2.0 0.03 0.15 0.00 94 1008.7
20260509040007 56 11 0.0 2.0 0.04 0.15 0.15 94 1008.7
20260509035513 56 11 0.0 2.0 0.04 0.15 0.15 94 1008.8
20260509035008 56 53 0.0 0.0 0.04 0.14 0.14 94 1008.8
20260509034526 56 45 0.0 0.0 0.05 0.14 0.14 94 1008.9
20260509034007 56 45 0.0 0.0 0.05 0.13 0.13 94 1009.2
20260509033508 56 46 0.0 0.0 0.05 0.13 0.13 94 1009.1
20260509033010 56 46 0.0 0.0 0.06 0.13 0.13 94 1009.2
20260509032507 56 46 0.0 0.0 0.06 0.13 0.13 94 1009.2
20260509032010 56 50 0.0 0.0 0.06 0.13 0.13 94 1009.0
20260509031508 56 50 0.0 0.0 0.06 0.13 0.13 94 1009.1
20260509031006 56 50 0.0 0.0 0.06 0.13 0.13 94 1009.1
20260509030507 56 50 0.0 1.0 0.05 0.12 0.12 94 1009.1
20260509030007 56 49 0.0 2.0 0.04 0.11 0.11 94 1009.2
20260509025506 56 24 0.0 1.0 0.04 0.11 0.11 93 1009.3
20260509025005 56 331 0.0 0.0 0.04 0.10 0.10 94 1009.7
20260509024505 56 331 0.0 1.0 0.03 0.09 0.09 93 1009.7
20260509024006 56 331 0.0 2.0 0.02 0.08 0.08 93 1009.8
20260509023505 56 331 0.0 2.0 0.02 0.07 0.07 93 1009.8
20260509023005 56 355 0.0 0.0 0.02 0.07 0.07 93 1009.8
20260509022505 56 360 0.0 0.0 0.04 0.07 0.07 93 1009.7
20260509022004 56 360 0.0 0.0 0.04 0.07 0.07 93 1009.4
20260509021505 56 360 0.0 0.0 0.05 0.07 0.07 93 1009.4
20260509021006 56 360 0.0 0.0 0.05 0.07 0.07 92 1009.3
20260509020507 56 360 0.0 0.0 0.06 0.07 0.07 93 1009.3
20260509020003 56 360 0.0 1.0 0.06 0.07 0.07 92 1009.2
20260509015503 56 360 0.0 1.0 0.06 0.07 0.07 92 1009.2
20260509015003 56 360 0.0 1.0 0.05 0.06 0.06 92 1009.1
20260509014503 56 360 0.0 0.0 0.06 0.06 0.06 92 1009.1
20260509014003 56 360 0.0 0.0 0.06 0.06 0.06 92 1009.0
20260509013502 56 360 0.0 0.0 0.05 0.05 0.05 91 1009.1
20260509013003 56 360 0.0 1.0 0.04 0.04 0.04 91 1009.3
20260509012501 56 360 0.0 2.0 0.03 0.03 0.03 90 1009.4
20260509012001 56 336 0.0 2.0 0.03 0.03 0.03 90 1009.6
20260509011501 56 312 0.0 2.0 0.02 0.02 0.02 90 1009.6
20260509011100 56 343 0.0 3.0 0.02 0.02 0.02 89 1009.4
20260509010559 57 360 0.0 3.0 0.01 0.01 0.01 88 1009.3
20260509010104 57 360 0.0 2.0 0.01 0.01 0.01 87 1009.3
20260509005558 57 13 0.0 3.0 0.01 0.01 0.01 87 1009.3
20260509005057 57 355 0.0 3.0 0.01 0.01 0.01 86 1009.2
20260509004621 57 338 0.0 2.0 0.00 0.00 0.00 85 1009.2
20260509004057 58 9 0.0 2.0 0.00 0.00 0.00 84 1009.2
20260509003602 58 9 0.0 2.0 0.00 0.00 0.00 83 1009.3
20260509003056 59 38 0.0 2.0 0.00 0.00 0.00 81 1009.2
20260509002555 59 340 0.0 2.0 0.00 0.00 0.00 79 1009.1
20260509002054 60 355 0.0 6.0 0.00 0.00 0.00 75 1009.0
20260509001555 61 355 1.0 6.0 0.00 0.00 0.00 72 1008.7
20260509001053 61 9 0.0 3.0 0.00 0.00 0.00 72 1008.5
20260509000551 62 11 0.0 3.0 0.00 0.00 0.00 69 1008.4
20260509000052 63 47 0.0 2.0 0.00 0.00 0.00 68 1008.5
20260508235552 65 22 0.0 2.0 0.00 0.00 0.00 59 1008.4
20260508235053 66 280 0.0 0.0 0.00 0.00 0.00 57 1008.4
20260508234551 66 281 0.0 0.0 0.00 0.00 0.00 54 1008.5
20260508234054 66 280 0.0 0.0 0.00 0.00 0.00 53 1008.4
20260508233554 67 280 0.0 1.0 0.00 0.00 0.00 52 1008.4
20260508233051 67 290 0.0 2.0 0.00 0.00 0.00 52 1008.4
20260508232551 67 189 0.0 2.0 0.00 0.00 0.00 50 1008.4
20260508232053 67 126 0.0 2.0 0.00 0.00 0.00 50 1008.3
20260508231555 67 185 0.0 2.0 0.00 0.00 0.00 51 1008.4
20260508231049 67 149 0.0 4.0 0.00 0.00 0.00 50 1008.3
20260508230549 68 232 0.0 4.0 0.00 0.00 0.00 50 1008.4
20260508230052 67 238 0.0 2.0 0.00 0.00 0.00 51 1008.5
20260508225549 67 259 0.0 2.0 0.00 0.00 0.00 52 1008.4
20260508225049 68 278 0.0 2.0 0.00 0.00 0.00 50 1008.4
20260508224552 68 126 0.0 2.0 0.00 0.00 0.00 49 1008.3
20260508224048 68 146 0.0 4.0 0.00 0.00 0.00 48 1008.4
20260508223548 68 146 0.0 4.0 0.00 0.00 0.00 50 1008.3
20260508223051 68 136 1.0 4.0 0.00 0.00 0.00 48 1008.4
20260508222547 68 161 0.0 3.0 0.00 0.00 0.00 50 1008.4
20260508222048 68 138 0.0 4.0 0.00 0.00 0.00 49 1008.4
20260508221551 67 150 0.0 4.0 0.00 0.00 0.00 49 1008.4
20260508221048 67 225 0.0 6.0 0.00 0.00 0.00 50 1008.5
20260508220547 67 159 0.0 6.0 0.00 0.00 0.00 50 1008.4
20260508220047 67 279 0.0 2.0 0.00 0.00 0.00 52 1008.3
20260508215547 67 204 0.0 2.0 0.00 0.00 0.00 49 1008.3
20260508215047 67 102 0.0 2.0 0.00 0.00 0.00 53 1008.3
20260508214600 67 194 0.0 2.0 0.00 0.00 0.00 50 1008.3
20260508214046 67 97 0.0 2.0 0.00 0.00 0.00 51 1008.3
20260508213545 67 225 0.0 2.0 0.00 0.00 0.00 53 1008.3
20260508213046 67 196 0.0 2.0 0.00 0.00 0.00 51 1008.2
20260508212546 67 169 0.0 2.0 0.00 0.00 0.00 50 1008.2
20260508212045 67 173 0.0 2.0 0.00 0.00 0.00 49 1008.3
20260508211546 68 122 0.0 4.0 0.00 0.00 0.00 50 1008.2
20260508211046 68 345 0.0 5.0 0.00 0.00 0.00 50 1008.2
20260508210546 68 266 0.0 5.0 0.00 0.00 0.00 49 1008.3
20260508210046 68 204 0.0 4.0 0.00 0.00 0.00 47 1008.3
20260508205542 68 266 0.0 5.0 0.00 0.00 0.00 49 1008.4
20260508205043 68 184 0.0 5.0 0.00 0.00 0.00 47 1008.4
20260508204543 68 244 1.0 5.0 0.00 0.00 0.00 46 1008.5
20260508204042 68 242 0.0 7.0 0.00 0.00 0.00 50 1008.6
20260508203541 68 200 0.0 7.0 0.00 0.00 0.00 51 1008.6
20260508203041 68 207 0.0 3.0 0.00 0.00 0.00 49 1008.7
20260508202541 68 117 0.0 4.0 0.00 0.00 0.00 48 1008.7
20260508202039 68 147 0.0 5.0 0.00 0.00 0.00 45 1008.8
20260508201640 68 195 0.0 6.0 0.00 0.00 0.00 49 1009.1
20260508201040 68 223 0.0 6.0 0.00 0.00 0.00 48 1009.0
20260508200537 68 211 0.0 5.0 0.00 0.00 0.00 48 1009.1
20260508200042 68 218 0.0 5.0 0.00 0.00 0.00 47 1009.2
20260508195536 68 270 0.0 10.0 0.00 0.00 0.00 48 1009.3
20260508195036 68 178 0.0 10.0 0.00 0.00 0.00 47 1009.4
20260508194535 68 191 0.0 3.0 0.00 0.00 0.00 47 1009.5
20260508194035 68 144 0.0 4.0 0.00 0.00 0.00 47 1009.6
20260508193534 68 190 1.0 3.0 0.00 0.00 0.00 47 1009.6
20260508193043 68 199 0.0 2.0 0.00 0.00 0.00 48 1009.7
20260508192533 68 124 0.0 3.0 0.00 0.00 0.00 48 1009.9
20260508192036 68 199 0.0 4.0 0.00 0.00 0.00 47 1009.9
20260508191544 68 248 0.0 5.0 0.00 0.00 0.00 44 1010.0
20260508191031 68 194 1.0 5.0 0.00 0.00 0.00 43 1010.0
20260508190532 68 273 0.0 3.0 0.00 0.00 0.00 48 1010.1
20260508190130 68 120 0.0 2.0 0.00 0.00 0.00 46 1010.2
20260508185532 69 148 0.0 2.0 0.00 0.00 0.00 45 1010.3
20260508185029 69 182 0.0 6.0 0.00 0.00 0.00 45 1010.2
20260508184534 69 137 1.0 6.0 0.00 0.00 0.00 45 1010.2
20260508184033 68 134 0.0 4.0 0.00 0.00 0.00 43 1010.3
20260508183528 68 119 0.0 5.0 0.00 0.00 0.00 45 1010.3
20260508183037 68 261 0.0 6.0 0.00 0.00 0.00 44 1010.4
20260508182529 68 81 2.0 7.0 0.00 0.00 0.00 44 1010.4
20260508182028 68 204 1.0 7.0 0.00 0.00 0.00 44 1010.4
20260508181528 69 215 0.0 6.0 0.00 0.00 0.00 43 1010.2
20260508181027 70 150 1.0 7.0 0.00 0.00 0.00 42 1010.3
20260508180527 70 360 0.0 7.0 0.00 0.00 0.00 46 1010.3
20260508180025 70 282 1.0 7.0 0.00 0.00 0.00 44 1010.4
20260508175525 69 300 0.0 4.0 0.00 0.00 0.00 45 1010.5
20260508175024 69 130 0.0 4.0 0.00 0.00 0.00 44 1010.6
20260508174522 69 259 0.0 4.0 0.00 0.00 0.00 49 1010.8
20260508174021 68 195 0.0 4.0 0.00 0.00 0.00 48 1011.1
20260508173520 66 161 0.0 6.0 0.00 0.00 0.00 47 1011.3
20260508173020 66 251 1.0 11.0 0.00 0.00 0.00 47 1011.3
20260508172522 66 169 1.0 11.0 0.00 0.00 0.00 48 1011.4
20260508172018 67 275 0.0 6.0 0.00 0.00 0.00 47 1011.5
20260508171518 68 190 0.0 9.0 0.00 0.00 0.00 48 1011.5
20260508171016 67 215 2.0 9.0 0.00 0.00 0.00 45 1011.7
20260508170515 66 202 0.0 4.0 0.00 0.00 0.00 49 1011.8
20260508170016 66 313 0.0 4.0 0.00 0.00 0.00 50 1011.9
20260508165513 67 161 0.0 8.0 0.00 0.00 0.00 48 1012.1
20260508165015 66 236 1.0 7.0 0.00 0.00 0.00 50 1012.1
20260508164520 65 198 1.0 8.0 0.00 0.00 0.00 48 1012.1
20260508164009 65 180 1.0 8.0 0.00 0.00 0.00 52 1012.1
20260508163508 65 187 0.0 4.0 0.00 0.00 0.00 51 1012.2
20260508163013 65 202 0.0 4.0 0.00 0.00 0.00 50 1012.4
20260508162507 65 165 0.0 3.0 0.00 0.00 0.00 52 1012.6
20260508162007 65 173 0.0 3.0 0.00 0.00 0.00 52 1012.6
20260508161509 65 338 0.0 4.0 0.00 0.00 0.00 52 1012.6
20260508161005 64 285 0.0 4.0 0.00 0.00 0.00 51 1012.7
20260508160507 64 238 0.0 3.0 0.00 0.00 0.00 53 1012.8
20260508160002 64 71 0.0 3.0 0.00 0.00 0.00 51 1012.8
20260508155501 63 220 0.0 4.0 0.00 0.00 0.00 55 1012.9
20260508155101 63 294 0.0 4.0 0.00 0.00 0.00 52 1013.0
20260508154600 63 151 0.0 2.0 0.00 0.00 0.00 53 1013.1
20260508154058 62 273 0.0 6.0 0.00 0.00 0.00 54 1013.2
20260508153558 62 246 0.0 6.0 0.00 0.00 0.00 52 1013.3
20260508153059 62 169 0.0 4.0 0.00 0.00 0.00 53 1013.3
20260508152557 62 142 0.0 3.0 0.00 0.00 0.00 55 1013.2
20260508152056 62 292 0.0 4.0 0.00 0.00 0.00 56 1013.2
20260508151556 62 195 1.0 7.0 0.00 0.00 0.00 54 1013.3
20260508151056 62 191 1.0 7.0 0.00 0.00 0.00 57 1013.3
20260508150555 62 78 0.0 6.0 0.00 0.00 0.00 53 1013.4
20260508150053 61 265 0.0 8.0 0.00 0.00 0.00 56 1013.4
20260508145553 61 180 1.0 8.0 0.00 0.00 0.00 52 1013.4
20260508145053 61 302 1.0 6.0 0.00 0.00 0.00 52 1013.4
20260508144553 61 141 0.0 6.0 0.00 0.00 0.00 54 1013.5
20260508144053 61 209 0.0 2.0 0.00 0.00 0.00 55 1013.5
20260508143552 61 245 0.0 5.0 0.00 0.00 0.00 55 1013.5
20260508143057 61 226 1.0 5.0 0.00 0.00 0.00 51 1013.5
20260508142552 61 273 0.0 3.0 0.00 0.00 0.00 52 1013.5
20260508142051 61 281 0.0 8.0 0.00 0.00 0.00 54 1013.6
20260508141603 61 267 2.0 8.0 0.00 0.00 0.00 50 1013.7
20260508141049 61 192 3.0 8.0 0.00 0.00 0.00 56 1013.7
20260508140548 60 20 1.0 7.0 0.00 0.00 0.00 52 1013.9
20260508140047 60 258 0.0 6.0 0.00 0.00 0.00 54 1013.9
20260508135546 59 157 0.0 5.0 0.00 0.00 0.00 54 1013.8
20260508135044 59 234 0.0 7.0 0.00 0.00 0.00 54 1013.8
20260508134544 58 269 0.0 7.0 0.00 0.00 0.00 56 1013.8
20260508134042 58 208 1.0 4.0 0.00 0.00 0.00 54 1013.9
20260508133542 57 192 0.0 4.0 0.00 0.00 0.00 56 1013.8
20260508133041 57 275 0.0 3.0 0.00 0.00 0.00 59 1013.9
20260508132539 56 275 0.0 4.0 0.00 0.00 0.00 59 1013.9
20260508132037 56 259 0.0 4.0 0.00 0.00 0.00 61 1013.9
20260508131536 55 103 0.0 3.0 0.00 0.00 0.00 60 1013.9
20260508131039 55 143 0.0 3.0 0.00 0.00 0.00 57 1013.9
20260508130535 54 150 0.0 3.0 0.00 0.00 0.00 60 1014.0
20260508130038 54 244 0.0 3.0 0.00 0.00 0.00 60 1014.0
20260508125531 53 163 0.0 2.0 0.00 0.00 0.00 64 1013.9
20260508125030 53 185 0.0 2.0 0.00 0.00 0.00 64 1014.0
20260508124530 52 127 0.0 2.0 0.00 0.00 0.00 65 1014.1
20260508124029 52 250 0.0 2.0 0.00 0.00 0.00 67 1014.1
20260508123529 51 226 0.0 2.0 0.00 0.00 0.00 67 1014.0
20260508123027 51 140 0.0 2.0 0.00 0.00 0.00 67 1014.0
20260508122526 50 174 0.0 2.0 0.00 0.00 0.00 68 1013.9
20260508122026 50 176 0.0 2.0 0.00 0.00 0.00 70 1013.9
20260508121526 49 169 0.0 2.0 0.00 0.00 0.00 70 1014.0
20260508121025 49 180 0.0 2.0 0.00 0.00 0.00 69 1014.0
20260508120524 48 190 0.0 0.0 0.00 0.00 0.00 70 1014.0
20260508120024 48 190 0.0 1.0 0.00 0.00 0.00 70 1013.8
20260508115523 48 189 0.0 1.0 0.00 0.00 0.00 70 1013.9
20260508115023 47 189 0.0 1.0 0.00 0.00 0.00 70 1013.9
20260508114522 47 190 0.0 0.0 0.00 0.00 0.00 70 1013.9
20260508114022 47 166 0.0 0.0 0.00 0.00 0.00 70 1013.8
20260508113524 47 200 0.0 0.0 0.00 0.00 0.00 70 1013.7
20260508113022 47 200 0.0 0.0 0.00 0.00 0.00 70 1013.7
20260508112520 47 200 0.0 2.0 0.00 0.00 0.00 69 1013.8